User: anonymous   Login
Location: Unspecified
(0.0000°N, 0.0000°E)
Time: 18:54:13
(UTC+00:00)
Language:

Interbol-2 - Orbit

View from above orbital plane
View from above orbital plane
View from above satellite
View from above satellite

Ground track
Ground track

The orbit data is extracted from the following two-line orbital elements,

1 24292U 96050B   19340.38151446  .00000024  00000-0  00000+0 0  9993
2 24292  63.2126 279.2457 5361031 237.5580 285.0780  4.14707159352442
Epoch (UTC): 06 December 2019 09:09:22
Eccentricity: 0.5361031
inclination: 63.2126°
perigee height: 1213 km
apogee height: 18759 km
right ascension of ascending node: 279.2457°
argument of perigee: 237.5580°
revolutions per day: 4.14707159
mean anomaly at epoch: 285.0780°
orbit number at epoch: 35244

The dashed part of the orbit path shows where the satellite is in the earth's shadow,  

DLR